FW6726 Weather Reports


Display with metric or nautical units.
time (UTC)temp
F
wind
direction
speed
MPH
gust
MPH
rain 1hr
in
rain 24hr
in
rain mn
in
humidity
%
barometer
mb
20260505235540 67 259 13.0 21.0 0.00 0.00 0.00 56 1015.4
20260505235038 67 254 11.0 21.0 0.00 0.00 0.00 55 1015.3
20260505234539 68 251 9.0 20.0 0.00 0.00 0.00 54 1015.3
20260505234038 69 252 12.0 20.0 0.00 0.00 0.00 54 1015.2
20260505233537 69 244 7.0 22.0 0.00 0.00 0.00 56 1015.4
20260505233303 69 234 13.0 22.0 0.00 0.00 0.00 53 1015.3
20260505232537 69 261 13.0 24.0 0.00 0.00 0.00 54 1015.4
20260505232036 69 227 12.0 28.0 0.00 0.00 0.00 53 1015.4
20260505231536 69 235 15.0 28.0 0.00 0.00 0.00 54 1015.4
20260505231256 70 228 14.0 28.0 0.00 0.00 0.00 54 1015.3
20260505230536 69 231 11.0 28.0 0.00 0.00 0.00 56 1015.5
20260505230036 69 219 14.0 21.0 0.00 0.00 0.00 56 1015.4
20260505225757 67 224 12.0 19.0 0.00 0.00 0.00 57 1015.7
20260505225257 66 238 10.0 23.0 0.00 0.00 0.00 59 1015.7
20260505224536 65 224 11.0 23.0 0.00 0.00 0.00 59 1015.8
20260505224256 66 247 17.0 21.0 0.00 0.00 0.00 58 1015.9
20260505223535 66 223 15.0 21.0 0.00 0.00 0.00 57 1015.9
20260505223257 67 233 12.0 29.0 0.00 0.00 0.00 57 1015.9
20260505222801 68 252 11.0 29.0 0.00 0.00 0.00 55 1016.0
20260505222301 69 212 12.0 21.0 0.00 0.00 0.00 54 1016.0
20260505221535 69 196 14.0 19.0 0.00 0.00 0.00 55 1016.1
20260505221032 68 200 9.0 19.0 0.00 0.00 0.00 57 1016.2
20260505220532 67 274 14.0 20.0 0.00 0.00 0.00 58 1016.2
20260505220513 67 261 15.0 20.0 0.00 0.00 0.00 57 1016.3
20260505215525 67 220 13.0 22.0 0.00 0.00 0.00 57 1016.3
20260505215017 67 255 13.0 24.0 0.00 0.00 0.00 57 1016.3
20260505214518 68 241 14.0 24.0 0.00 0.00 0.00 54 1016.3
20260505214015 69 238 11.0 23.0 0.00 0.00 0.00 55 1016.2
20260505213516 69 292 15.0 23.0 0.00 0.00 0.00 56 1016.2
20260505213017 69 235 14.0 23.0 0.00 0.00 0.00 56 1016.3
20260505212514 68 203 17.0 24.0 0.00 0.00 0.00 55 1016.3
20260505212004 68 224 14.0 24.0 0.00 0.00 0.00 56 1016.2
20260505211504 69 176 11.0 23.0 0.00 0.00 0.00 53 1016.4
20260505211004 70 255 12.0 26.0 0.00 0.00 0.00 54 1016.3
20260505210502 70 244 17.0 26.0 0.00 0.00 0.00 52 1016.1
20260505210003 69 207 13.0 24.0 0.00 0.00 0.00 54 1016.4
20260505205503 69 240 10.0 24.0 0.00 0.00 0.00 53 1016.5
20260505205003 69 255 13.0 24.0 0.00 0.00 0.00 53 1016.4
20260505204503 69 295 16.0 24.0 0.00 0.00 0.00 54 1016.4
20260505204003 69 248 15.0 20.0 0.00 0.00 0.00 54 1016.4
20260505203720 68 259 9.0 24.0 0.00 0.00 0.00 55 1016.5
20260505203231 68 237 19.0 27.0 0.00 0.00 0.00 54 1016.4
20260505202503 68 281 17.0 27.0 0.00 0.00 0.00 53 1016.3
20260505202003 69 265 18.0 23.0 0.00 0.00 0.00 53 1016.3
20260505201726 69 265 13.0 27.0 0.00 0.00 0.00 52 1016.4
20260505201003 69 305 16.0 28.0 0.00 0.00 0.00 56 1016.4
20260505200454 68 247 17.0 28.0 0.00 0.00 0.00 55 1016.4
20260505195949 68 269 17.0 23.0 0.00 0.00 0.00 55 1016.4
20260505195449 67 237 13.0 27.0 0.00 0.00 0.00 57 1016.5
20260505194949 66 238 14.0 27.0 0.00 0.00 0.00 58 1016.7
20260505194722 67 210 14.0 22.0 0.00 0.00 0.00 56 1016.7
20260505194211 67 278 14.0 22.0 0.00 0.00 0.00 57 1016.5
20260505193645 66 193 15.0 19.0 0.00 0.00 0.00 58 1016.6
20260505193627 67 213 9.0 19.0 0.00 0.00 0.00 59 1016.8
20260505192433 66 186 12.0 19.0 0.00 0.00 0.00 59 1016.7
20260505191931 67 209 10.0 19.0 0.00 0.00 0.00 58 1016.7
20260505191431 68 206 14.0 19.0 0.00 0.00 0.00 55 1016.7
20260505190932 68 172 9.0 16.0 0.00 0.00 0.00 55 1016.7
20260505190431 68 190 9.0 17.0 0.00 0.00 0.00 54 1016.7
20260505185930 69 178 9.0 17.0 0.00 0.00 0.00 55 1016.7
20260505185430 68 142 5.0 12.0 0.00 0.00 0.00 59 1016.6
20260505185154 67 209 6.0 21.0 0.00 0.00 0.00 58 1016.8
20260505184431 66 214 13.0 21.0 0.00 0.00 0.00 56 1016.8
20260505183931 66 250 16.0 20.0 0.00 0.00 0.00 57 1016.7
20260505183430 66 234 13.0 20.0 0.00 0.00 0.00 58 1016.7
20260505183129 0 0.0 19.0 0.00 0.00 0.00 1016.9
20260505183120 66 262 14.0 19.0 0.00 0.00 0.00 57 1016.7
20260505181928 66 257 13.0 19.0 0.00 0.00 0.00 58 1016.9
20260505181427 65 268 10.0 20.0 0.00 0.00 0.00 59 1016.8
20260505180927 65 255 15.0 20.0 0.00 0.00 0.00 59 1016.8
20260505180428 65 261 13.0 19.0 0.00 0.00 0.00 60 1016.9
20260505175927 64 268 11.0 21.0 0.00 0.00 0.00 60 1016.8
20260505175427 64 250 14.0 21.0 0.00 0.00 0.00 60 1016.8
20260505174927 64 252 14.0 20.0 0.00 0.00 0.00 60 1016.8
20260505174427 64 252 13.0 24.0 0.00 0.00 0.00 61 1016.6
20260505173926 64 276 16.0 24.0 0.00 0.00 0.00 61 1016.8
20260505173426 64 264 17.0 23.0 0.00 0.00 0.00 60 1016.8
20260505172926 63 278 18.0 27.0 0.00 0.00 0.00 62 1016.8
20260505172427 63 279 19.0 29.0 0.00 0.00 0.00 62 1016.6
20260505171926 63 271 23.0 29.0 0.00 0.00 0.00 62 1016.4
20260505171651 63 262 20.0 28.0 0.00 0.00 0.00 61 1016.5
20260505170925 63 298 19.0 22.0 0.00 0.00 0.00 61 1016.4
20260505170426 63 272 15.0 21.0 0.00 0.00 0.00 62 1016.3
20260505165925 62 247 14.0 21.0 0.00 0.00 0.00 60 1016.4
20260505165425 64 257 7.0 19.0 0.00 0.00 0.00 59 1016.5
20260505165152 65 228 7.0 14.0 0.00 0.00 0.00 56 1016.7
20260505164425 65 134 2.0 4.0 0.00 0.00 0.00 56 1016.8
20260505164149 65 104 2.0 7.0 0.00 0.00 0.00 58 1016.7
20260505163425 64 185 3.0 7.0 0.00 0.00 0.00 58 1016.6
20260505162926 63 94 3.0 7.0 0.00 0.00 0.00 59 1016.6
20260505162904 63 97 2.0 9.0 0.00 0.00 0.00 59 1016.5
20260505161924 63 97 4.0 9.0 0.00 0.00 0.00 58 1016.4
20260505161425 63 87 1.0 9.0 0.00 0.00 0.00 56 1016.4
20260505160924 64 79 5.0 7.0 0.00 0.00 0.00 57 1016.3
20260505160425 63 131 2.0 6.0 0.00 0.00 0.00 60 1016.2
20260505152924 57 89 2.0 4.0 0.00 0.00 0.00 66 1016.0
20260505152425 57 8 2.0 5.0 0.00 0.00 0.00 66 1015.9
20260505151925 57 334 2.0 9.0 0.00 0.00 0.00 66 1016.0
20260505151424 57 299 2.0 9.0 0.00 0.00 0.00 67 1015.9
20260505151146 57 279 5.0 9.0 0.00 0.00 0.00 67 1015.8
20260505150646 57 252 4.0 7.0 0.00 0.00 0.00 66 1015.9
20260505140422 56 319 5.0 14.0 0.00 0.00 0.00 66 1015.4
20260505124921 56 326 9.0 17.0 0.00 0.00 0.00 61 1015.2
20260505124422 55 269 11.0 16.0 0.00 0.00 0.00 62 1015.2
20260505123920 55 272 7.0 15.0 0.00 0.00 0.00 61 1015.2
20260505123421 56 299 7.0 15.0 0.00 0.00 0.00 61 1015.3
20260505123144 56 312 6.0 15.0 0.00 0.00 0.00 61 1015.4
20260505122421 56 20 4.0 7.0 0.00 0.00 0.00 60 1015.4
20260505121919 56 310 2.0 10.0 0.00 0.00 0.00 61 1015.3
20260505121420 55 307 5.0 10.0 0.00 0.00 0.00 61 1015.3
20260505120919 55 293 4.0 7.0 0.00 0.00 0.00 61 1015.4
20260505120420 55 312 3.0 10.0 0.00 0.00 0.00 64 1015.4
20260505115919 55 331 5.0 10.0 0.00 0.00 0.00 64 1015.4
20260505115420 55 333 4.0 7.0 0.00 0.00 0.00 65 1015.4
20260505114919 55 316 6.0 7.0 0.00 0.00 0.00 66 1015.4
20260505114421 55 323 4.0 6.0 0.00 0.00 0.00 65 1015.4
20260505113919 55 319 5.0 6.0 0.00 0.00 0.00 65 1015.4
20260505113654 55 330 3.0 5.0 0.00 0.00 0.00 65 1015.4
20260505112920 55 316 2.0 6.0 0.00 0.00 0.00 66 1015.5
20260505112628 55 292 1.0 5.0 0.00 0.00 0.00 66 1015.4
20260505112617 55 314 3.0 6.0 0.00 0.00 0.00 65 1015.5
20260505111420 55 39 3.0 5.0 0.00 0.00 0.00 66 1015.5
20260505110919 55 326 2.0 4.0 0.00 0.00 0.00 66 1015.4
20260505110420 55 324 2.0 7.0 0.00 0.00 0.00 67 1015.4
20260505101917 55 309 7.0 11.0 0.00 0.00 0.00 65 1015.4
20260505101417 55 310 2.0 10.0 0.00 0.00 0.00 65 1015.4
20260505100916 56 271 5.0 10.0 0.00 0.00 0.00 63 1015.5
20260505100418 56 333 2.0 7.0 0.00 0.00 0.00 61 1015.4
20260505095917 56 330 2.0 6.0 0.00 0.00 0.00 59 1015.5
20260505095417 56 329 2.0 6.0 0.00 0.00 0.00 60 1015.6
20260505094916 56 307 4.0 13.0 0.00 0.00 0.00 59 1015.6
20260505094416 56 288 7.0 13.0 0.00 0.00 0.00 59 1015.6
20260505093915 56 303 5.0 9.0 0.00 0.00 0.00 60 1015.7
20260505093903 56 299 3.0 9.0 0.00 0.00 0.00 59 1015.7
20260505092915 56 226 2.0 5.0 0.00 0.00 0.00 59 1015.8
20260505092415 55 217 3.0 5.0 0.00 0.00 0.00 59 1015.9
20260505091915 56 220 2.0 4.0 0.00 0.00 0.00 59 1016.0
20260505091415 56 313 2.0 3.0 0.00 0.00 0.00 60 1015.9
20260505091359 56 312 0.0 2.0 0.00 0.00 0.00 66 1016.0
20260505090414 56 312 1.0 2.0 0.00 0.00 0.00 66 1016.1
20260505085915 56 312 1.0 2.0 0.00 0.00 0.00 67 1016.1
20260505085414 55 309 1.0 2.0 0.00 0.00 0.00 66 1016.2
20260505084915 55 309 1.0 5.0 0.00 0.00 0.00 67 1016.2
20260505084415 55 306 3.0 5.0 0.00 0.00 0.00 67 1016.2
20260505083914 56 338 2.0 4.0 0.00 0.00 0.00 67 1016.3
20260505083414 56 341 2.0 3.0 0.00 0.00 0.00 70 1016.3
20260505082914 56 341 2.0 4.0 0.00 0.00 0.00 68 1016.2
20260505082634 56 341 2.0 4.0 0.00 0.00 0.00 69 1016.3
20260505082134 56 358 1.0 4.0 0.00 0.00 0.00 69 1016.4
20260505081413 56 0 1.0 4.0 0.00 0.00 0.00 71 1016.5
20260505080913 56 299 2.0 3.0 0.00 0.00 0.00 72 1016.6
20260505080414 56 293 0.0 0.0 0.00 0.00 0.00 71 1016.6
20260505075913 56 293 0.0 0.0 0.00 0.00 0.00 70 1016.6
20260505075637 56 293 0.0 2.0 0.00 0.00 0.00 70 1016.6
20260505074913 56 293 0.0 3.0 0.00 0.00 0.00 69 1016.6
20260505074412 56 293 1.0 4.0 0.00 0.00 0.00 67 1016.6
20260505073913 56 293 3.0 4.0 0.00 0.00 0.00 68 1016.7
20260505073413 56 293 0.0 0.0 0.00 0.00 0.00 67 1016.7
20260505072913 56 293 0.0 0.0 0.00 0.00 0.00 66 1016.6
20260505072413 56 293 0.0 0.0 0.00 0.00 0.00 66 1016.6
20260505072355 56 293 0.0 2.0 0.00 0.00 0.00 64 1016.6
20260505071412 56 293 0.0 2.0 0.00 0.00 0.00 64 1016.6
20260505070913 56 293 1.0 2.0 0.00 0.00 0.00 63 1016.6
20260505070412 56 293 0.0 2.0 0.00 0.00 0.00 63 1016.5
20260505065912 56 293 1.0 2.0 0.00 0.00 0.00 65 1016.6
20260505065412 56 293 0.0 2.0 0.00 0.00 0.00 65 1016.5
20260505064913 56 293 0.0 2.0 0.00 0.00 0.00 65 1016.6
20260505064413 56 293 0.0 2.0 0.00 0.00 0.00 66 1016.6
20260505063914 56 293 1.0 5.0 0.00 0.00 0.00 67 1016.6
20260505063413 56 293 2.0 5.0 0.00 0.00 0.00 65 1016.5
20260505062914 56 295 4.0 5.0 0.00 0.00 0.00 65 1016.6
20260505062412 56 298 3.0 5.0 0.00 0.00 0.00 65 1016.5
20260505061913 56 300 4.0 6.0 0.00 0.00 0.00 65 1016.4
20260505061411 56 299 5.0 6.0 0.00 0.00 0.00 66 1016.5
20260505060912 56 309 4.0 7.0 0.00 0.00 0.00 66 1016.4
20260505060411 56 309 6.0 7.0 0.00 0.00 0.00 66 1016.5
20260505055912 56 327 6.0 10.0 0.00 0.00 0.00 67 1016.4
20260505055411 56 305 7.0 10.0 0.00 0.00 0.00 68 1016.5
20260505055139 56 299 7.0 10.0 0.00 0.00 0.00 69 1016.5
20260505054410 56 305 7.0 9.0 0.00 0.00 0.00 69 1016.4
20260505053912 56 299 6.0 7.0 0.00 0.00 0.00 70 1016.6
20260505053410 56 302 5.0 6.0 0.00 0.00 0.00 70 1016.5
20260505052912 56 309 4.0 6.0 0.00 0.00 0.00 70 1016.5
20260505052410 56 305 5.0 6.0 0.00 0.00 0.00 70 1016.6
20260505052137 56 312 2.0 5.0 0.00 0.00 0.00 70 1016.6
20260505051409 56 312 4.0 7.0 0.00 0.00 0.00 70 1016.6
20260505050911 56 310 6.0 7.0 0.00 0.00 0.00 70 1016.5
20260505050409 56 290 6.0 11.0 0.00 0.00 0.00 70 1016.5
20260505041409 57 276 10.0 12.0 0.00 0.00 0.00 70 1016.5
20260505040910 58 279 9.0 11.0 0.00 0.00 0.00 70 1016.5
20260505040632 58 289 7.0 10.0 0.00 0.00 0.00 70 1016.5
20260505035910 58 271 6.0 11.0 0.00 0.00 0.00 70 1016.5
20260505035409 58 282 6.0 14.0 0.00 0.00 0.00 70 1016.6
20260505034910 58 281 9.0 14.0 0.00 0.00 0.00 70 1016.5
20260505034408 58 278 9.0 15.0 0.00 0.00 0.00 70 1016.5
20260505033909 58 275 10.0 16.0 0.00 0.00 0.00 70 1016.6
20260505033409 58 281 12.0 16.0 0.00 0.00 0.00 70 1016.4
20260505032908 58 283 12.0 15.0 0.00 0.00 0.00 70 1016.5
20260505032631 58 272 9.0 13.0 0.00 0.00 0.00 70 1016.4
20260505031908 58 272 7.0 12.0 0.00 0.00 0.00 70 1016.4
20260505031409 58 279 8.0 12.0 0.00 0.00 0.00 70 1016.5
20260505030909 58 251 8.0 14.0 0.00 0.00 0.00 70 1016.4
20260505030903 58 266 6.0 14.0 0.00 0.00 0.00 70 1016.4
20260505025908 58 272 10.0 14.0 0.00 0.00 0.00 70 1016.2
20260505025407 58 245 9.0 14.0 0.00 0.00 0.00 70 1016.2
20260505024908 58 274 7.0 14.0 0.00 0.00 0.00 69 1016.2
20260505024407 58 272 9.0 14.0 0.00 0.00 0.00 69 1016.1
20260505023907 58 257 9.0 14.0 0.00 0.00 0.00 69 1016.1
20260505023407 59 262 9.0 14.0 0.00 0.00 0.00 70 1016.1
20260505022906 59 258 10.0 13.0 0.00 0.00 0.00 70 1016.2
20260505022407 59 269 5.0 6.0 0.00 0.00 0.00 69 1016.1
20260505021906 59 276 4.0 6.0 0.00 0.00 0.00 69 1016.3
20260505021407 59 262 4.0 6.0 0.00 0.00 0.00 68 1016.2
20260505020906 59 213 3.0 7.0 0.00 0.00 0.00 68 1016.2
20260505020406 60 213 4.0 7.0 0.00 0.00 0.00 67 1016.3
20260505020133 59 185 4.0 10.0 0.00 0.00 0.00 67 1016.3
20260505015406 59 210 5.0 10.0 0.00 0.00 0.00 67 1016.4
20260505014907 59 193 3.0 9.0 0.00 0.00 0.00 66 1016.4
20260505014624 59 193 6.0 9.0 0.00 0.00 0.00 66 1016.5
20260505013902 60 214 6.0 12.0 0.00 0.00 0.00 66 1016.5
20260505013403 60 213 9.0 12.0 0.00 0.00 0.00 65 1016.6
20260505012859 60 234 8.0 13.0 0.00 0.00 0.00 65 1016.6
20260505012359 60 209 7.0 15.0 0.00 0.00 0.00 64 1016.7
20260505011857 60 207 8.0 15.0 0.00 0.00 0.00 63 1016.7
20260505011354 61 206 8.0 15.0 0.00 0.00 0.00 63 1016.7
20260505010852 61 206 11.0 15.0 0.00 0.00 0.00 61 1016.8
20260505010352 61 188 10.0 15.0 0.00 0.00 0.00 61 1016.9
20260505005844 63 233 11.0 15.0 0.00 0.00 0.00 58 1016.8
20260505005342 63 199 10.0 16.0 0.00 0.00 0.00 59 1016.9
20260505004840 63 206 10.0 16.0 0.00 0.00 0.00 58 1016.9
20260505004542 0 0.0 14.0 0.00 0.00 0.00 1016.9
20260505004527 63 221 9.0 14.0 0.00 0.00 0.00 61 1016.8
20260505003331 63 200 9.0 16.0 0.00 0.00 0.00 64 1016.9
20260505002832 63 230 10.0 16.0 0.00 0.00 0.00 63 1016.9
20260505002332 63 196 10.0 16.0 0.00 0.00 0.00 66 1016.9
20260505001832 63 216 10.0 16.0 0.00 0.00 0.00 65 1016.9
20260505001331 63 204 11.0 17.0 0.00 0.00 0.00 67 1016.9
20260505000831 63 182 11.0 17.0 0.00 0.00 0.00 66 1017.0
20260505000324 64 202 10.0 14.0 0.00 0.00 0.00 66 1017.0
20260505000041 64 197 8.0 12.0 0.00 0.00 0.00 67 1017.0